Wind_Speed
71 71 70 68 67 67 67 66 65 64 65 67 67 68 69 70 69 67 66 65 66 66 66 65 64 62 62 65 67 69 68 67 66 65 64 64 63 63 63 63 64 64 64 64 63 62 60 58 56 56 56 57 57 58 58 58 59 59 60 60 61 60 60 60 59 58 58 57 55 54 53 52 50 49 49 50 50 51 52 52 53 53 53 53 53
73 72 70 67 66 67 68 68 67 67 67 69 70 70 71 72 72 70 67 65 64 65 65 66 65 63 62 61 63 66 68 68 68 67 67 66 65 65 65 65 66 67 66 66 64 63 61 59 57 57 57 58 58 58 58 58 58 59 60 61 62 62 62 62 60 59 58 57 56 55 53 51 50 50 50 51 51 51 52 52 53 54 54 54 55
75 73 71 68 67 68 69 70 69 69 70 71 73 74 74 75 75 73 70 66 64 62 62 63 64 64 63 61 61 62 66 69 70 70 69 68 68 67 68 68 69 69 69 68 66 65 63 61 60 59 59 59 59 58 58 58 58 58 58 60 61 62 63 63 61 60 59 57 56 55 53 51 50 50 50 51 51 52 52 53 54 54 55 55 55
75 74 71 70 70 71 72 73 73 73 74 75 76 76 76 75 75 73 72 70 67 63 61 61 62 63 63 63 62 62 64 67 70 71 71 71 70 70 71 72 72 73 73 71 69 68 66 64 62 61 61 61 61 60 59 58 58 57 57 58 59 61 62 62 61 60 59 57 56 54 53 51 51 50 50 51 52 53 53 54 55 56 56 56 56
77 76 75 74 73 74 75 76 77 76 75 75 76 77 77 76 75 73 71 70 69 67 64 61 62 63 63 64 64 65 65 67 69 71 72 72 72 73 74 74 75 76 76 74 73 71 69 67 65 64 64 63 61 60 59 59 59 59 58 57 57 58 60 61 61 59 58 57 55 54 53 52 52 51 51 52 52 53 54 55 56 57 57 57 56
78 78 79 79 78 78 78 79 80 80 79 77 76 76 78 80 80 78 75 73 71 69 67 65 63 64 65 67 68 69 69 70 70 71 71 72 72 74 76 77 77 78 78 78 77 75 72 70 68 66 64 61 59 58 59 60 60 60 60 59 58 58 58 59 59 59 58 57 56 55 55 54 53 53 53 53 53 54 54 55 56 57 57 56 55
83 83 83 83 84 83 82 82 83 84 85 85 83 80 80 83 86 85 83 82 79 75 72 70 67 66 66 69 71 72 73 73 73 72 72 72 72 74 75 77 78 79 79 80 79 77 74 70 67 64 61 58 57 59 61 62 62 62 62 62 61 60 59 58 58 58 58 58 58 57 56 55 55 54 54 54 54 54 55 56 56 57 57 56 55
89 88 87 87 87 88 88 87 87 85 85 86 87 85 83 84 87 89 88 87 86 83 80 77 75 72 70 70 73 76 76 76 76 76 76 76 76 76 76 76 77 77 77 77 76 75 72 70 66 63 60 58 59 61 64 64 64 65 66 65 64 62 62 60 58 58 58 58 59 59 57 56 56 55 55 55 55 55 56 57 57 58 58 57 55
90 88 87 86 87 88 89 90 90 90 87 84 83 84 84 83 84 87 89 89 89 88 87 85 83 82 80 76 75 77 80 80 79 79 80 80 81 81 81 81 81 79 78 77 76 75 73 71 70 67 65 63 63 65 67 66 66 67 68 68 65 63 62 61 59 58 57 57 58 60 60 59 58 57 57 57 58 58 59 59 59 59 59 57 55
89 88 87 87 87 88 88 89 90 91 91 88 85 85 85 84 83 84 86 89 90 91 90 89 89 89 89 86 81 79 80 83 83 83 83 83 83 84 84 84 84 84 84 83 82 81 80 78 76 74 72 71 71 71 71 70 69 69 69 69 67 63 63 62 60 58 58 57 58 60 61 61 61 60 59 60 60 60 61 61 61 60 60 58 56
91 91 91 91 91 91 91 92 92 93 94 93 92 92 92 91 89 86 85 86 88 91 92 92 91 91 92 91 88 83 81 83 86 87 86 86 85 85 85 85 86 87 87 88 88 87 87 85 82 79 78 77 75 74 73 71 70 69 70 70 69 65 63 63 63 61 59 59 60 60 61 61 62 62 62 62 62 62 62 63 62 61 60 59 58
94 94 95 95 96 96 96 96 96 96 97 98 98 98 97 96 95 93 90 87 86 87 89 90 91 91 90 90 89 87 83 83 86 88 89 89 88 88 88 88 89 89 89 89 89 88 87 86 84 83 81 79 77 74 72 71 70 69 70 71 70 67 65 64 64 63 60 60 61 62 62 62 62 62 63 64 64 64 64 63 62 61 61 60 59
98 99 99 100 100 100 99 99 99 100 100 101 101 101 100 99 98 97 96 93 89 86 86 86 86 87 88 88 88 88 86 85 87 89 90 91 91 91 91 91 91 91 90 89 89 88 87 86 84 84 83 81 78 76 73 72 71 70 70 71 70 69 67 65 64 63 61 61 62 62 62 63 63 63 64 65 67 67 67 65 64 63 63 62 61
102 103 103 103 103 103 103 102 102 102 102 103 103 103 102 102 101 100 99 98 95 92 88 86 84 84 85 86 86 86 87 87 88 89 90 91 92 92 93 93 93 92 92 90 89 88 87 85 81 79 79 80 78 75 73 72 72 71 71 71 71 71 69 66 64 62 62 62 63 63 62 62 62 63 65 67 68 69 70 69 66 65 65 65 63
102 103 104 104 104 104 105 105 105 105 105 105 105 104 104 103 103 103 103 102 100 98 94 91 88 86 85 85 86 86 86 87 89 90 90 91 92 92 92 92 93 93 93 92 89 86 85 84 81 76 73 73 73 72 71 71 71 71 72 72 72 72 71 68 65 63 64 65 66 65 64 63 62 64 66 68 68 70 71 71 69 68 67 65 64
99 100 101 102 103 104 104 105 106 106 107 107 107 107 106 105 105 105 105 104 104 103 101 97 94 91 89 87 86 86 86 87 89 90 90 91 91 91 91 91 92 93 93 92 89 85 82 81 81 79 75 71 68 68 68 69 70 72 72 73 73 73 71 68 66 66 68 68 68 67 65 65 65 65 67 67 68 69 70 71 70 69 67 66 66
95 96 97 98 99 100 101 102 103 104 105 107 108 108 108 107 106 106 106 106 105 105 105 103 100 98 95 92 90 88 87 87 88 89 89 90 90 90 89 90 91 93 94 93 89 84 79 77 77 78 76 73 70 68 68 68 69 72 73 74 75 74 69 67 67 69 70 70 68 67 66 66 67 67 67 67 66 67 68 69 70 70 68 66 67
92 93 95 96 96 97 98 98 99 100 101 103 104 106 107 107 107 107 106 106 105 105 105 106 105 103 100 98 96 93 90 89 89 90 90 90 90 90 89 90 91 92 95 95 91 85 80 77 75 74 73 73 72 71 69 69 70 72 72 73 73 71 67 65 67 68 69 69 69 68 68 67 67 68 68 67 65 64 66 68 70 70 67 66 67
92 93 93 94 94 95 95 95 96 97 97 98 99 101 103 104 105 105 105 105 105 105 104 104 104 105 104 103 101 98 95 92 91 92 91 91 91 91 91 92 92 93 95 97 94 90 84 79 76 74 72 71 71 71 70 70 70 71 71 70 69 66 64 65 67 67 68 70 72 72 70 67 66 67 68 67 65 63 64 66 68 68 67 66 67
93 92 91 91 91 91 91 92 92 93 94 95 96 97 99 100 101 102 103 103 103 104 103 103 102 102 103 104 104 103 100 96 93 93 93 92 92 93 93 93 93 94 96 96 94 91 85 80 76 73 71 71 70 70 69 69 71 72 72 70 66 64 65 68 69 70 72 75 75 73 69 65 65 67 67 67 67 67 67 66 66 67 68 68 68
91 90 89 89 89 89 90 90 91 91 92 92 93 94 95 96 98 99 100 101 101 101 101 101 101 100 99 99 101 103 103 100 96 94 94 93 93 93 94 93 92 93 94 93 91 88 84 80 77 74 72 71 70 69 68 69 70 71 72 70 67 66 69 70 71 72 75 75 73 69 65 64 65 67 66 67 69 70 70 69 68 68 68 68 67
91 91 90 90 90 90 90 91 91 91 92 92 93 93 93 93 95 96 98 99 99 99 99 98 99 99 97 96 96 97 99 100 97 95 94 94 93 93 93 93 92 92 91 90 87 84 81 79 77 75 73 72 71 70 69 69 70 70 70 69 68 68 69 69 69 70 71 70 68 65 64 64 66 67 68 69 71 70 69 68 67 67 67 67 66
92 91 91 91 91 91 92 92 92 92 92 92 93 93 93 93 94 95 95 97 98 98 97 96 96 97 96 95 94 93 94 95 96 95 94 93 93 93 92 92 91 90 89 87 84 81 78 76 75 74 73 72 71 70 69 70 70 69 70 71 70 69 69 68 67 67 67 66 65 65 64 64 65 68 71 72 71 68 65 64 64 65 65 66 65
91 91 91 91 91 92 92 93 93 93 93 93 94 94 93 93 94 95 95 96 96 97 96 95 95 95 95 94 93 92 91 91 91 93 93 93 94 94 92 91 91 90 88 85 83 81 78 76 74 74 73 72 72 72 72 71 70 69 69 70 70 69 68 67 67 67 66 65 65 65 64 63 66 71 72 71 68 65 63 61 61 62 63 64 65
89 89 89 90 90 91 91 92 92 93 93 93 94 93 93 93 94 94 94 95 95 96 96 95 94 94 93 92 91 90 89 89 88 89 90 91 92 93 91 89 89 89 88 86 84 81 80 78 76 75 74 73 74 75 76 75 74 73 71 71 71 69 66 66 67 68 69 68 66 66 64 64 68 72 72 69 67 64 61 60 60 60 61 62 64
86 86 87 87 88 88 88 88 88 88 89 89 90 90 91 92 92 93 93 93 94 94 95 95 95 94 92 90 89 88 88 87 87 86 86 87 89 90 89 86 85 85 85 85 83 81 80 80 78 76 75 75 75 75 75 75 75 75 74 73 73 70 66 67 69 71 72 72 69 69 68 67 69 73 72 69 66 63 60 59 59 59 60 61 63
83 83 83 83 83 83 83 83 83 82 82 83 84 84 85 86 88 89 89 90 91 92 93 94 94 94 92 90 88 88 87 87 85 84 82 82 83 85 86 84 82 81 82 82 80 79 79 79 78 77 76 76 76 75 75 73 72 71 70 69 69 68 67 68 70 71 73 74 72 72 72 71 71 73 71 67 64 61 59 57 57 58 61 62 64
78 77 77 76 76 77 77 76 76 76 75 76 76 77 77 79 80 82 83 85 86 88 89 91 92 93 92 90 88 88 87 86 84 83 82 81 80 79 80 80 79 77 77 78 77 77 77 77 78 78 77 76 76 74 73 72 71 69 67 66 65 65 66 67 68 69 70 71 72 73 73 72 73 73 68 63 60 59 57 56 57 60 63 64 65
70 70 70 69 68 68 68 67 67 66 66 66 66 67 68 69 71 72 74 77 79 81 84 86 87 89 91 91 89 87 86 85 84 83 83 83 82 78 75 75 75 74 74 74 74 75 77 78 78 78 77 76 75 74 72 70 69 68 67 66 65 65 65 65 66 66 66 65 67 69 71 72 74 70 64 60 58 58 59 59 61 63 65 67 68
64 65 65 64 63 62 62 61 61 60 59 58 58 57 57 59 61 62 64 66 70 73 76 78 81 84 87 89 88 87 85 84 84 85 85 85 84 81 76 74 73 72 71 72 72 74 76 78 79 79 78 77 77 76 74 72 70 69 69 67 66 66 66 66 65 64 63 63 64 65 68 71 70 63 59 59 60 61 62 63 64 66 67 68 69
63 63 64 64 63 62 60 58 58 57 56 56 55 53 52 52 53 55 56 58 61 64 67 70 73 77 81 84 85 85 84 83 84 85 85 85 85 83 80 77 75 73 72 71 71 72 73 75 76 77 77 77 75 73 73 73 72 69 68 67 66 66 66 64 64 62 61 62 62 62 64 68 66 60 59 61 63 63 63 64 65 66 67 67 68
64 64 63 62 61 59 57 56 55 54 53 53 53 52 51 50 51 52 53 55 56 58 61 63 65 68 72 77 80 82 82 82 83 85 85 85 85 84 83 81 78 77 75 72 71 71 71 70 70 71 73 74 72 70 70 70 69 67 66 65 64 63 62 61 62 63 62 62 62 61 62 66 68 65 64 66 65 64 64 65 66 67 67 67 67
57 56 55 55 55 54 53 52 51 51 51 50 50 50 50 50 50 50 51 53 54 55 57 59 60 62 65 68 73 76 78 79 81 83 84 84 84 84 84 82 81 80 78 74 70 69 68 66 65 66 68 69 69 69 68 67 66 66 67 68 66 63 62 61 62 63 63 63 63 63 63 65 69 71 71 71 69 67 66 66 67 67 67 67 69
50 50 51 51 52 51 50 50 49 49 50 50 49 49 49 49 48 48 49 50 51 53 54 55 56 57 59 61 64 68 72 75 78 81 82 83 84 84 84 84 83 83 82 76 71 69 68 65 62 62 63 64 66 67 68 68 67 65 65 65 65 64 63 63 63 63 62 61 61 63 63 65 68 73 74 73 71 69 68 68 68 69 70 71 73
48 49 49 50 51 50 49 48 48 47 47 47 46 45 45 46 46 47 47 47 48 49 51 52 53 54 55 56 58 61 65 69 74 77 79 81 82 83 85 85 84 83 82 78 73 71 71 69 66 64 63 64 65 67 67 67 67 66 65 63 63 63 63 63 62 61 60 59 60 61 63 65 69 73 75 74 72 71 71 71 73 74 75 75 75
48 47 48 48 48 46 44 43 42 42 42 42 42 43 44 45 46 45 45 45 46 46 47 48 49 50 51 52 52 55 58 63 68 72 75 77 79 82 84 85 83 82 81 79 77 75 75 76 74 72 69 67 68 68 67 67 67 69 69 67 65 63 62 62 61 59 58 58 59 61 64 67 70 74 77 77 76 75 74 75 76 75 74 74 74
46 45 45 44 42 40 39 40 40 41 42 43 44 45 45 45 44 43 43 43 43 43 44 44 45 46 47 48 48 49 52 56 61 66 69 73 76 79 81 82 82 81 81 82 82 81 80 79 79 77 75 72 70 70 70 70 70 70 69 66 63 62 61 60 59 58 58 58 59 61 65 69 72 75 77 78 78 77 76 76 74 73 72 73 73
43 43 41 39 37 37 39 40 41 42 43 43 43 43 43 41 40 39 39 39 39 39 40 41 41 42 43 44 45 45 47 51 55 59 63 68 72 75 76 77 78 79 80 82 85 86 85 83 81 78 76 75 74 74 73 73 72 71 68 65 63 62 61 59 58 58 58 60 61 62 65 68 72 74 75 75 75 75 75 74 73 73 73 73 73
40 39 36 34 35 37 39 40 40 40 40 40 40 39 39 38 37 36 35 35 36 37 37 38 38 37 38 40 42 43 44 47 50 54 58 63 67 69 70 72 74 75 76 79 82 84 84 82 80 78 77 76 75 75 75 75 75 72 68 66 64 62 60 58 58 58 59 60 61 62 64 66 68 70 71 71 71 71 70 71 72 73 73 74 75
36 34 31 31 34 36 37 36 35 33 32 33 33 34 34 34 34 34 34 34 34 35 35 35 34 33 34 36 38 40 41 43 46 50 54 58 62 64 65 68 71 73 74 76 77 78 78 77 76 77 77 76 74 73 73 74 75 73 71 68 66 63 60 58 58 59 60 61 62 63 64 65 66 67 67 67 67 68 68 69 70 71 73 74 75
33 30 29 29 31 33 33 31 29 27 27 28 28 27 27 27 28 29 29 30 31 32 32 32 31 30 30 31 34 36 38 40 42 46 50 53 56 58 60 64 68 71 73 74 75 76 76 76 75 76 76 74 72 71 71 72 72 72 71 69 66 63 60 58 58 59 60 62 62 63 63 63 64 65 66 66 67 68 69 70 71 72 73 74 74
30 29 27 28 29 30 30 29 28 26 26 27 27 26 24 22 22 22 22 23 24 26 27 28 28 27 26 27 29 31 33 35 38 41 44 47 49 52 55 59 64 67 70 72 73 75 76 76 76 76 75 74 73 72 72 71 71 71 70 68 66 63 62 61 61 62 63 64 64 64 65 66 66 67 68 68 69 70 70 71 72 72 72 72 73
28 28 27 27 27 28 28 28 28 27 26 26 25 25 24 23 21 20 19 18 17 18 19 21 22 22 22 22 24 25 27 30 32 35 38 40 43 46 50 54 58 62 65 68 71 73 75 77 78 77 76 76 76 75 73 72 71 71 70 68 66 66 65 65 66 67 68 68 68 69 69 69 69 69 70 70 70 70 70 70 70 70 71 71 71
27 27 26 25 26 26 26 26 26 26 25 24 24 23 23 23 23 22 20 17 15 13 13 13 14 15 16 17 18 20 22 24 27 30 32 35 38 41 45 48 52 55 60 63 66 69 72 76 78 78 77 76 76 76 74 73 72 71 69 68 67 67 67 68 69 70 71 71 71 71 71 70 70 69 69 68 68 68 68 68 69 69 69 70 69
28 26 25 24 24 24 24 23 24 24 24 23 23 22 22 21 22 22 22 21 18 14 11 9 9 10 12 14 15 17 19 21 24 26 29 31 34 36 39 42 46 50 54 58 61 65 68 72 75 77 77 77 76 75 74 73 73 71 69 67 67 67 68 68 69 69 70 70 70 70 69 68 68 67 67 66 66 67 67 67 68 67 67 67 66
33 30 27 25 24 23 22 22 22 23 23 23 22 21 21 20 20 20 20 20 19 18 16 13 10 8 6 7 10 13 15 18 20 22 25 27 29 32 34 37 40 44 47 51 55 59 63 66 71 74 76 77 76 75 73 72 72 70 69 67 67 67 68 68 68 67 67 67 66 66 65 65 65 64 64 64 65 65 65 65 65 64 63 63 62
36 35 34 31 28 25 23 22 21 21 22 22 22 21 20 19 18 17 17 17 16 16 16 15 14 12 10 7 5 5 7 10 13 16 18 21 23 26 29 31 34 37 40 44 48 52 56 61 65 69 72 74 75 74 72 70 69 68 66 64 63 63 63 63 64 63 64 63 63 63 62 62 62 62 62 62 62 62 62 61 61 60 60 59 59
35 35 36 36 35 33 29 25 22 21 20 21 20 20 19 18 16 16 15 15 14 13 13 12 12 12 10 9 7 6 4 4 5 7 10 14 17 20 23 26 28 31 34 37 41 44 49 53 57 60 63 66 68 69 68 68 66 65 63 61 60 59 60 60 61 61 61 61 60 60 59 59 59 59 59 59 59 58 58 58 58 58 57 57 56
35 36 36 36 37 37 36 33 29 25 22 21 20 20 19 18 16 14 13 13 12 11 10 9 9 10 10 8 7 5 5 4 4 4 5 8 10 13 16 18 21 24 27 30 33 37 40 44 47 50 53 55 57 59 60 61 60 59 58 57 57 57 57 58 58 57 57 57 57 56 56 56 55 55 55 55 55 55 55 56 56 55 55 55 55
36 37 37 37 37 37 38 37 36 32 28 24 21 20 19 18 16 14 12 11 10 10 9 7 6 6 7 8 7 5 3 2 2 3 4 5 6 9 11 12 14 16 18 21 24 27 30 33 36 39 41 43 45 48 49 50 51 51 52 52 53 53 53 54 54 53 53 53 53 52 52 52 51 51 51 52 52 52 53 54 54 54 55 56 57
37 38 38 39 39 39 39 38 37 36 34 31 26 22 20 18 16 14 13 11 10 9 8 7 6 5 5 6 6 6 4 3 3 3 3 4 5 7 9 10 10 10 12 14 17 19 20 22 24 26 28 30 33 36 37 39 41 42 43 44 45 47 48 48 49 49 48 48 48 48 48 48 48 49 49 50 51 51 52 53 54 55 55 56 55
Wind_Direction
261 263 265 265 262 258 255 253 252 250 249 250 250 251 253 255 256 255 254 254 253 252 251 250 250 251 252 254 254 253 252 251 250 249 249 248 248 247 247 247 246 246 246 247 248 250 252 253 255 257 258 260 262 264 266 267 268 269 270 270 270 269 268 266 265 265 266 267 268 269 269 271 272 274 275 275 275 275 273 272 272 271 271 271 272
262 264 264 262 258 256 254 253 252 250 249 249 249 250 251 252 254 254 254 255 255 254 253 251 250 249 250 252 254 255 254 253 251 250 249 248 247 247 247 247 247 247 248 248 249 250 251 253 254 255 257 259 261 263 265 266 268 270 271 272 271 271 270 269 268 267 267 267 268 269 270 271 272 273 274 274 274 273 272 271 271 271 271 271 272
263 263 263 260 257 255 253 253 253 251 250 249 248 248 248 249 250 252 253 254 255 256 256 255 253 251 250 250 252 254 254 254 253 251 250 248 247 248 248 249 249 250 250 250 251 251 252 252 253 254 255 257 258 260 262 265 268 270 272 273 273 273 272 270 269 268 268 268 268 269 270 270 271 272 271 271 271 271 271 270 270 271 272 273 274
263 263 262 260 257 255 253 252 252 252 253 252 250 249 248 247 248 249 251 252 253 254 256 257 256 254 252 251 251 252 253 252 252 251 251 250 249 249 250 250 251 251 251 251 251 251 251 251 252 253 254 255 257 259 262 265 268 271 274 274 273 272 271 271 270 269 267 268 268 268 269 270 271 270 269 269 269 270 271 271 272 273 274 275 277
262 262 262 261 258 256 254 252 250 250 250 250 251 252 252 251 249 250 251 252 253 253 254 256 256 255 253 252 251 251 251 250 249 248 249 250 251 252 253 253 254 253 253 252 252 252 251 251 252 253 254 256 258 261 264 267 269 272 274 275 274 271 270 270 270 269 267 267 267 268 269 270 270 269 268 268 269 271 272 273 274 275 276 277 278
260 261 262 262 261 259 257 255 253 253 253 252 250 251 254 255 255 254 254 255 256 255 254 254 255 255 254 252 251 250 250 249 247 246 245 246 248 250 252 254 255 256 256 255 254 253 252 252 252 254 256 259 262 264 266 268 270 272 274 275 274 272 271 270 269 269 268 267 267 268 268 269 269 269 268 269 270 272 273 274 275 276 277 277 278
263 262 262 261 261 261 260 259 257 257 258 258 256 254 254 256 258 259 258 257 257 256 256 255 255 256 256 254 252 250 249 249 248 246 246 246 246 248 249 251 253 254 255 255 255 254 253 254 255 258 260 262 264 265 266 268 270 271 272 274 274 272 271 270 269 268 267 268 268 268 268 269 269 269 269 269 271 273 274 274 275 276 277 277 278
267 266 264 263 262 261 261 261 261 261 260 261 262 262 260 258 258 259 261 260 258 257 257 256 256 256 256 255 253 251 250 249 249 249 248 249 249 249 250 251 252 253 253 254 254 254 254 256 258 260 262 265 266 266 267 269 270 271 272 272 273 272 270 270 269 267 266 267 268 269 269 269 270 270 270 270 271 272 273 273 274 275 275 276 276
270 268 266 264 263 262 262 261 261 261 261 262 263 264 264 263 261 260 260 261 260 259 257 257 256 256 256 255 253 251 250 249 249 249 250 250 250 251 251 252 252 253 253 254 255 255 256 257 259 261 263 265 267 268 269 270 271 272 272 272 272 271 269 268 268 267 265 267 268 269 270 270 270 271 271 272 272 272 272 272 273 273 273 274 273
271 270 269 267 265 264 263 262 261 261 260 261 262 263 264 264 263 262 261 261 260 260 259 258 256 256 256 256 254 251 250 250 249 249 250 250 251 251 252 252 253 253 254 254 256 257 258 259 260 262 264 265 267 268 268 269 270 270 271 270 269 269 267 266 266 266 265 265 266 266 267 269 270 271 271 271 272 272 272 272 271 271 272 272 271
270 270 270 270 269 268 267 266 264 263 261 261 261 262 263 264 263 262 261 260 260 260 259 259 258 257 257 257 256 252 250 249 250 249 249 249 250 251 252 252 253 254 255 255 256 257 258 259 261 262 264 265 266 266 265 265 266 267 268 267 266 265 264 262 264 264 263 263 264 265 266 267 268 269 270 270 271 270 270 269 269 270 270 270 269
269 269 270 270 270 270 270 269 268 267 266 264 263 262 262 262 262 261 260 259 259 259 259 259 258 258 257 257 257 254 251 248 249 250 250 250 250 251 251 252 253 254 255 257 258 259 259 260 261 262 263 263 264 264 263 262 264 265 265 264 263 263 261 260 261 262 262 262 262 263 265 265 266 267 268 269 270 269 268 267 267 268 268 268 268
270 270 271 271 270 270 270 269 269 268 268 268 267 265 263 262 260 260 259 259 258 257 256 256 256 256 256 256 256 255 253 250 249 249 251 251 251 252 253 253 254 255 256 257 259 260 262 263 263 262 262 261 261 261 261 262 263 264 263 262 261 262 262 261 260 262 263 263 263 263 264 264 265 266 266 267 268 268 267 265 265 266 266 267 267
271 271 271 270 270 269 269 268 268 267 267 267 268 268 267 265 263 260 259 258 257 256 255 254 253 253 253 253 253 253 253 251 250 249 249 251 252 253 254 255 256 257 258 259 260 261 262 263 262 261 260 259 259 259 259 259 260 261 261 260 260 261 262 262 261 262 263 263 264 265 265 265 265 266 266 266 266 266 266 264 263 264 265 265 265
272 271 271 270 269 269 268 268 267 266 266 266 265 266 266 266 265 263 261 259 257 256 255 254 252 251 251 251 251 250 250 250 249 249 249 250 251 252 254 255 257 258 259 260 262 262 261 260 259 258 258 257 258 257 257 257 258 258 258 258 258 259 261 261 262 262 262 263 264 265 266 266 266 267 267 266 265 264 264 263 262 263 264 264 264
274 273 272 271 270 269 268 268 267 266 265 265 264 264 263 264 264 264 263 261 259 257 256 254 253 252 250 250 250 249 248 248 248 248 248 249 250 252 253 255 257 259 260 261 261 262 260 257 256 255 256 256 256 257 257 256 256 256 256 256 257 258 259 261 261 261 262 263 264 264 265 266 267 267 267 266 264 263 262 262 261 261 262 262 263
276 275 274 273 272 271 270 269 267 266 265 264 264 263 262 262 262 262 262 262 261 260 258 256 254 252 251 250 250 249 248 248 248 247 247 248 249 251 253 254 256 258 259 260 260 260 259 258 256 255 255 255 256 257 257 257 256 256 256 256 256 257 258 260 261 262 263 263 264 264 264 266 269 269 267 265 263 260 259 259 259 259 259 260 261
276 276 276 275 275 274 273 272 270 268 267 265 264 263 262 261 261 260 260 260 260 260 259 258 256 254 252 251 250 249 249 249 249 248 248 248 249 250 252 254 256 257 258 259 260 259 259 259 259 258 258 258 257 258 258 257 256 255 255 255 256 256 257 258 260 262 262 263 263 263 265 268 270 269 268 265 260 257 257 257 256 257 257 258 260
278 278 278 277 276 276 275 274 273 272 270 268 267 265 264 262 261 260 260 259 259 259 259 259 258 257 255 253 251 250 249 249 249 249 249 249 250 251 251 253 255 256 256 257 259 259 259 260 260 261 261 261 261 260 259 257 256 254 253 253 254 254 255 257 259 260 260 260 261 262 266 268 269 269 268 264 258 255 255 255 255 256 257 258 260
280 280 279 278 277 277 276 275 274 273 272 271 269 268 267 265 263 262 261 260 259 258 258 258 258 257 257 256 254 252 250 249 248 249 249 249 250 251 252 252 253 254 255 256 258 259 259 260 261 261 261 261 261 260 258 256 254 252 252 252 252 254 256 258 259 260 260 260 261 264 266 267 267 267 266 261 255 253 253 253 255 256 257 258 260
281 281 280 279 278 278 277 276 275 274 273 272 271 270 269 268 266 265 263 262 260 259 259 258 257 257 257 257 257 256 254 252 249 248 247 248 248 249 250 252 252 253 254 255 257 258 259 260 260 261 260 259 259 258 257 255 252 251 251 251 251 253 255 258 259 260 261 261 263 265 265 265 266 265 261 257 254 252 253 254 255 256 258 260 262
283 283 282 281 280 279 278 277 276 275 274 273 272 270 269 268 268 267 266 264 263 261 259 258 258 257 256 256 257 257 257 256 254 250 248 246 247 248 249 250 251 251 252 254 255 257 258 259 259 259 258 257 256 255 254 252 250 250 249 249 249 251 253 256 258 260 261 262 263 264 263 264 265 263 258 255 253 253 253 254 255 256 258 261 261
285 285 284 283 282 281 279 278 277 276 274 273 272 270 269 268 267 266 265 265 264 262 260 259 258 257 256 255 255 256 257 257 256 254 251 248 247 247 247 248 249 250 251 252 253 255 257 257 257 257 256 255 253 251 250 249 248 247 247 247 248 250 252 255 257 259 261 262 263 263 263 264 263 260 256 254 253 254 255 256 257 258 259 260 259
285 284 284 283 281 280 279 278 277 276 275 273 272 271 269 268 267 265 265 264 263 263 261 260 258 257 255 254 253 254 255 256 256 255 253 250 248 247 248 248 249 250 250 250 252 253 255 256 255 253 252 251 250 249 248 247 246 246 246 248 249 250 252 255 257 259 260 262 262 261 261 262 260 257 255 254 253 255 257 259 260 260 260 260 260
285 284 283 282 281 280 279 278 277 276 275 274 272 271 270 269 267 266 265 263 263 262 261 260 259 257 256 254 253 252 253 254 254 254 253 251 250 249 249 249 250 250 250 250 251 252 253 254 252 250 249 248 248 248 249 249 248 247 246 248 250 251 253 256 258 259 260 261 260 258 259 260 258 254 253 253 253 255 258 259 260 260 259 259 259
285 284 284 283 282 281 280 279 278 277 275 274 273 272 271 269 268 267 265 264 263 262 261 260 259 257 256 254 253 252 251 251 252 252 252 251 250 250 250 250 250 250 250 251 252 252 252 251 250 249 247 245 246 248 249 251 251 250 249 250 251 253 255 258 258 258 257 258 258 257 258 258 254 251 251 252 253 256 258 258 258 258 258 258 259
287 287 286 285 284 283 282 281 280 278 277 275 274 273 271 270 269 268 266 265 263 262 260 259 258 257 255 253 252 251 250 249 249 250 250 250 249 249 248 248 248 248 248 250 251 251 250 248 247 246 245 244 245 246 247 249 250 250 249 251 252 253 255 256 257 256 255 256 258 259 259 257 251 248 250 252 254 257 257 256 256 257 257 258 261
289 289 288 287 286 285 285 284 282 281 279 278 276 274 273 271 270 268 268 266 265 262 261 259 257 256 255 253 251 249 248 247 247 247 247 247 247 247 246 245 245 245 245 246 247 247 246 244 243 243 244 243 244 245 246 247 248 248 248 249 251 253 253 254 254 254 255 258 261 262 261 256 249 247 250 253 255 257 255 253 253 255 258 261 264
292 291 291 291 290 290 289 288 287 286 284 282 280 278 276 274 272 270 269 268 267 265 262 260 258 256 255 253 250 248 247 246 245 245 244 244 245 246 245 244 243 242 241 241 241 241 240 240 240 241 241 242 242 243 244 246 247 247 247 247 249 251 251 252 253 255 258 261 263 263 261 254 248 248 252 254 254 254 253 253 254 257 260 264 266
294 294 294 294 294 292 291 290 289 288 287 286 284 282 281 279 277 274 272 270 269 267 265 262 259 257 255 253 251 248 246 245 244 243 242 242 243 244 245 245 244 242 240 239 238 237 236 236 237 238 239 239 240 241 242 243 244 245 245 246 248 249 250 251 253 257 260 261 260 261 258 251 247 250 253 253 252 252 254 256 258 259 262 264 265
297 297 298 297 296 295 293 291 288 287 286 285 284 283 281 280 279 277 275 273 271 269 268 265 262 259 256 253 251 248 246 244 243 242 241 241 241 242 243 244 245 244 241 239 238 237 236 235 236 237 237 238 239 240 241 242 243 244 245 246 248 248 249 251 254 256 258 257 258 260 257 249 247 251 252 250 252 256 258 259 260 261 261 263 264
300 300 299 298 298 297 295 293 290 287 285 283 282 281 280 278 277 275 273 271 270 269 268 266 264 261 258 255 251 249 245 243 242 242 241 240 240 240 240 241 243 245 243 240 238 239 238 237 237 237 237 238 238 239 240 241 242 244 244 245 246 247 248 251 253 255 256 256 258 261 258 251 248 249 250 250 254 259 261 261 262 262 263 265 267
301 301 301 301 300 299 297 295 292 289 286 284 282 281 281 280 278 275 272 270 269 267 267 266 265 263 260 256 253 249 246 243 241 240 240 240 239 239 239 239 240 242 243 240 239 240 240 239 239 241 241 240 240 240 240 239 241 243 246 247 247 247 247 250 254 256 258 259 260 261 262 258 252 250 250 253 257 261 264 265 265 266 267 268 269
304 304 305 304 303 301 299 297 294 291 289 286 284 283 283 282 281 279 276 273 270 268 267 266 265 263 260 258 254 250 246 243 240 239 239 239 239 238 239 239 238 240 241 240 239 240 240 240 241 244 246 245 244 242 240 239 240 245 248 247 245 245 246 251 255 257 258 260 261 261 262 261 257 252 251 253 257 261 265 266 266 266 265 265 264
305 305 306 306 306 304 302 298 295 293 290 287 286 286 286 285 284 281 279 275 272 269 268 266 265 264 261 258 255 251 247 243 240 239 238 237 237 237 238 238 238 239 240 239 239 240 241 241 243 245 248 249 248 246 243 242 242 245 247 247 246 247 249 251 254 256 258 260 262 263 263 263 260 255 253 253 255 259 262 263 262 260 260 259 259
306 307 308 310 309 307 304 301 298 295 292 290 289 288 288 287 284 282 279 276 273 270 268 266 265 265 262 259 255 251 247 243 240 238 237 236 236 236 237 237 238 239 240 239 239 240 242 243 245 246 248 249 250 249 247 246 245 246 248 249 250 251 253 254 255 257 259 260 261 262 262 262 260 257 255 255 256 258 260 260 258 257 257 257 257
309 310 311 312 312 310 307 305 302 299 297 294 292 291 289 287 285 282 279 276 273 271 268 266 265 264 263 260 255 251 247 243 239 236 235 235 235 235 236 237 237 238 239 240 241 241 242 244 245 246 247 249 249 249 248 247 248 248 249 250 252 254 256 257 258 259 260 260 261 260 259 258 257 256 255 255 257 258 260 259 257 255 255 256 258
313 314 314 314 313 312 310 308 305 302 300 297 295 293 291 289 286 283 280 276 273 271 268 266 265 264 262 259 255 250 245 241 238 235 233 233 233 234 235 235 235 236 237 239 240 241 242 243 243 244 246 247 247 246 246 248 249 250 250 251 252 254 256 258 260 262 262 262 261 260 258 256 255 255 256 257 258 260 260 259 257 255 256 259 262
318 317 316 317 317 317 315 313 310 306 303 300 297 295 292 290 287 283 280 276 273 270 268 268 267 265 260 256 253 249 244 240 236 234 232 232 232 232 232 233 233 233 233 235 237 238 238 239 239 241 242 243 242 242 244 247 249 251 251 252 253 254 257 260 263 264 264 263 261 260 258 256 256 257 258 259 260 261 262 261 259 259 260 263 265
322 320 320 323 326 326 325 322 318 315 313 310 305 300 295 291 287 284 280 277 274 271 270 269 268 266 261 255 251 248 244 239 235 232 231 231 231 230 229 230 230 230 230 231 232 233 232 232 234 235 237 237 237 238 241 244 247 249 251 252 252 254 257 260 262 262 262 261 260 259 258 258 258 258 259 260 261 261 261 261 261 262 263 265 268
325 323 325 329 332 335 337 336 333 332 333 333 328 320 309 300 294 289 284 280 276 273 272 270 268 266 261 255 251 247 243 238 234 231 230 230 229 228 228 228 228 229 228 228 228 229 229 228 229 231 232 233 234 236 237 239 242 245 247 248 250 252 254 256 257 257 257 257 257 257 257 257 257 258 258 259 260 260 261 261 263 264 266 268 269
328 327 328 332 335 338 342 346 349 351 350 348 346 344 336 325 314 305 297 290 283 276 273 270 268 265 260 255 250 246 242 237 234 232 230 229 228 227 227 228 228 228 228 227 226 226 226 226 227 229 230 231 232 234 235 236 238 240 242 244 245 246 248 250 251 252 253 254 254 255 256 256 257 258 258 259 260 261 263 264 265 267 268 269 271
330 330 331 333 336 339 342 345 349 352 353 353 355 357 356 351 343 332 320 310 299 288 279 273 268 263 258 252 248 245 241 237 234 232 230 229 229 228 228 228 228 228 228 227 226 226 226 226 227 229 231 232 232 234 235 237 237 238 239 240 241 243 245 247 249 250 251 252 253 254 255 256 257 258 259 260 262 263 265 266 267 268 270 271 272
332 331 333 336 338 341 343 346 347 348 350 352 357 2 5 5 2 357 350 340 326 311 296 283 271 262 255 249 244 240 238 236 234 232 231 229 229 229 229 229 228 228 229 228 227 226 226 226 227 229 231 233 234 235 236 237 238 239 239 239 241 243 245 246 247 249 250 251 253 254 255 256 258 259 260 262 263 265 266 267 268 270 271 272 273
350 340 335 335 337 341 344 348 350 351 351 352 354 359 3 6 5 4 2 1 359 353 341 321 295 274 260 251 245 240 238 236 235 234 233 231 230 230 230 230 229 228 229 229 228 227 227 227 227 229 231 233 235 236 237 238 239 240 240 241 242 243 245 247 248 250 251 252 254 255 256 257 259 260 261 263 264 265 267 268 269 270 270 271 272
13 5 353 343 338 337 340 345 349 352 354 354 354 355 358 1 3 3 2 4 6 8 11 11 4 345 312 279 260 249 244 241 238 236 234 232 230 229 229 230 230 229 229 229 229 229 228 228 228 229 231 233 235 237 238 239 240 242 243 243 244 245 247 249 251 253 254 255 256 257 257 258 259 260 261 263 264 265 267 268 268 269 270 271 272
20 19 15 8 358 348 341 340 343 347 350 352 353 354 354 355 357 359 0 2 3 2 3 7 10 9 6 357 331 287 256 245 240 238 235 232 230 230 229 229 230 230 230 230 230 230 230 230 230 230 231 233 235 237 239 241 242 244 245 246 247 248 249 250 252 253 254 255 255 256 257 258 259 260 262 263 264 266 267 267 268 269 270 271 271
18 19 20 20 17 11 2 352 344 341 343 346 349 350 351 350 350 351 351 355 358 2 3 1 358 356 357 357 354 347 331 292 263 250 241 235 231 230 230 230 230 231 231 232 232 232 232 232 233 233 234 235 236 238 240 242 244 245 246 247 248 249 249 250 251 252 253 253 254 255 256 258 259 260 262 263 264 266 266 267 268 268 269 269 271
13 15 16 18 19 19 18 13 4 354 346 342 343 345 346 346 347 347 345 343 344 349 357 3 0 355 350 345 341 337 334 330 317 291 264 241 228 225 225 226 228 229 230 232 233 233 234 234 234 235 236 237 237 238 240 241 243 244 245 246 247 248 248 249 250 251 252 253 254 255 256 258 259 261 262 263 264 265 266 266 267 267 268 270 272
7 9 11 13 14 16 17 18 17 12 5 355 346 342 342 343 344 345 344 343 339 336 336 338 343 347 348 346 340 330 317 313 308 295 274 245 221 213 212 213 215 219 223 226 230 232 233 234 235 236 236 236 237 237 238 239 240 241 242 243 244 245 246 247 248 249 251 252 254 255 257 258 259 261 262 263 264 265 265 266 267 267 269 271 273
3 4 5 7 9 10 11 13 15 16 15 11 4 354 346 342 342 343 343 344 343 341 335 329 322 317 318 324 324 315 293 250 223 224 232 231 223 213 205 201 207 216 221 223 224 225 226 228 230 231 232 233 233 234 234 235 237 239 241 242 243 244 245 246 248 249 251 253 255 256 257 258 259 261 262 263 264 265 266 266 267 268 270 271 273
Height
5625 5624 5624 5623 5623 5623 5622 5622 5622 5622 5623 5623 5623 5623 5622 5621 5620 5621 5621 5621 5621 5621 5621 5620 5620 5621 5623 5624 5626 5626 5626 5627 5627 5628 5629 5630 5630 5631 5632 5632 5633 5634 5634 5635 5636 5637 5638 5639 5639 5640 5640 5640 5641 5642 5642 5643 5643 5644 5644 5644 5644 5644 5645 5646 5647 5648 5647 5648 5648 5648 5649 5649 5649 5649 5649 5650 5650 5650 5650 5650 5651 5652 5653 5654 5654
5615 5615 5615 5614 5613 5613 5612 5612 5612 5612 5613 5613 5613 5613 5613 5612 5611 5611 5612 5612 5611 5612 5612 5611 5611 5612 5613 5614 5616 5617 5618 5619 5619 5619 5620 5621 5622 5623 5623 5624 5625 5626 5627 5627 5628 5629 5629 5630 5631 5631 5631 5631 5633 5634 5634 5635 5636 5636 5636 5635 5635 5635 5636 5637 5638 5639 5639 5640 5640 5640 5641 5641 5641 5641 5642 5642 5643 5643 5643 5643 5644 5645 5646 5647 5648
5605 5604 5604 5604 5604 5604 5603 5603 5603 5603 5603 5602 5602 5602 5602 5602 5602 5602 5602 5602 5602 5603 5602 5602 5603 5603 5604 5604 5605 5607 5608 5610 5610 5611 5612 5613 5613 5614 5614 5615 5616 5618 5619 5620 5620 5620 5621 5621 5622 5623 5622 5622 5624 5625 5626 5627 5627 5628 5628 5627 5627 5626 5626 5627 5629 5630 5630 5630 5631 5631 5632 5632 5632 5633 5634 5635 5635 5636 5636 5636 5636 5637 5638 5639 5640
5594 5594 5593 5593 5593 5593 5593 5592 5592 5592 5592 5592 5592 5591 5591 5591 5591 5591 5592 5592 5592 5593 5593 5593 5593 5594 5595 5595 5596 5596 5597 5599 5601 5602 5603 5604 5604 5605 5605 5605 5607 5608 5609 5611 5611 5611 5612 5612 5614 5614 5612 5612 5614 5616 5617 5618 5618 5619 5619 5619 5618 5618 5617 5617 5619 5620 5620 5620 5621 5622 5622 5622 5623 5625 5626 5626 5627 5628 5628 5628 5628 5628 5629 5630 5631
5583 5582 5582 5581 5581 5581 5581 5581 5580 5580 5580 5581 5581 5580 5580 5580 5580 5580 5581 5581 5581 5582 5582 5583 5584 5584 5585 5586 5586 5587 5587 5588 5590 5591 5593 5594 5595 5595 5595 5596 5598 5599 5600 5601 5601 5602 5602 5603 5604 5604 5602 5603 5606 5607 5608 5608 5609 5609 5610 5610 5610 5610 5609 5609 5610 5611 5611 5611 5611 5612 5613 5613 5615 5616 5617 5618 5618 5619 5619 5619 5619 5619 5620 5621 5622
5572 5571 5571 5570 5570 5569 5569 5569 5568 5568 5568 5569 5569 5570 5570 5569 5569 5569 5570 5570 5570 5570 5571 5572 5573 5574 5575 5576 5576 5577 5577 5578 5579 5581 5582 5582 5583 5584 5585 5586 5588 5589 5591 5591 5591 5592 5593 5594 5595 5594 5594 5595 5597 5598 5598 5598 5599 5599 5600 5601 5601 5601 5601 5601 5601 5601 5601 5601 5602 5603 5604 5605 5606 5608 5608 5608 5609 5609 5610 5610 5610 5610 5610 5612 5613
5561 5560 5559 5559 5558 5557 5557 5557 5556 5556 5556 5556 5557 5558 5559 5559 5558 5557 5557 5558 5559 5559 5560 5560 5562 5563 5564 5566 5567 5567 5568 5569 5569 5570 5571 5571 5572 5572 5573 5575 5577 5578 5580 5581 5581 5582 5583 5585 5586 5585 5586 5587 5588 5588 5588 5589 5589 5589 5590 5591 5592 5592 5593 5593 5593 5592 5592 5593 5593 5593 5595 5596 5598 5599 5599 5599 5600 5600 5600 5601 5601 5601 5601 5602 5604
5547 5547 5547 5546 5546 5545 5545 5544 5544 5543 5543 5543 5543 5544 5545 5546 5546 5545 5545 5545 5546 5547 5548 5549 5550 5551 5553 5555 5556 5557 5558 5559 5560 5560 5560 5560 5560 5561 5562 5564 5565 5567 5569 5570 5571 5572 5574 5576 5576 5576 5578 5579 5579 5579 5578 5579 5579 5579 5580 5581 5582 5583 5584 5584 5584 5584 5584 5585 5584 5585 5586 5588 5589 5590 5590 5590 5590 5591 5591 5591 5592 5592 5591 5593 5595
5532 5533 5533 5533 5533 5532 5532 5531 5531 5530 5530 5531 5531 5531 5532 5532 5533 5533 5533 5532 5533 5533 5535 5536 5537 5539 5540 5542 5545 5546 5547 5549 5550 5549 5548 5548 5549 5549 5550 5551 5553 5555 5557 5559 5560 5562 5564 5565 5566 5568 5569 5570 5570 5569 5569 5569 5569 5570 5571 5571 5572 5574 5575 5575 5575 5576 5576 5577 5577 5576 5577 5579 5580 5581 5582 5581 5581 5582 5582 5582 5583 5583 5582 5583 5586
5518 5518 5518 5518 5518 5518 5518 5518 5518 5517 5517 5517 5518 5518 5519 5519 5519 5520 5520 5520 5520 5520 5521 5523 5524 5525 5527 5529 5531 5534 5537 5538 5538 5537 5537 5537 5537 5537 5538 5539 5541 5542 5545 5547 5549 5551 5553 5555 5557 5559 5559 5560 5560 5560 5560 5560 5560 5561 5561 5562 5563 5564 5565 5566 5567 5567 5567 5568 5569 5568 5569 5570 5571 5572 5573 5573 5573 5573 5573 5573 5574 5575 5573 5573 5576
5505 5504 5503 5503 5503 5503 5503 5503 5503 5503 5502 5502 5502 5503 5503 5504 5505 5506 5506 5507 5507 5507 5508 5509 5511 5512 5513 5515 5517 5520 5524 5526 5526 5525 5526 5526 5526 5526 5527 5528 5529 5530 5533 5535 5537 5540 5542 5544 5547 5549 5549 5550 5552 5552 5551 5551 5551 5551 5551 5552 5553 5554 5555 5557 5558 5558 5558 5559 5560 5560 5561 5561 5561 5562 5563 5564 5564 5565 5565 5565 5565 5566 5565 5564 5566
5491 5490 5489 5488 5488 5488 5487 5487 5487 5486 5485 5485 5486 5487 5488 5489 5489 5490 5492 5493 5493 5494 5494 5495 5496 5498 5499 5502 5503 5505 5509 5512 5512 5512 5514 5514 5514 5514 5515 5516 5517 5518 5522 5524 5526 5528 5530 5534 5537 5539 5539 5541 5542 5541 5541 5541 5541 5541 5541 5542 5543 5544 5545 5547 5548 5549 5550 5550 5551 5552 5552 5552 5552 5553 5553 5554 5555 5556 5556 5557 5557 5557 5556 5555 5557
5476 5475 5474 5473 5472 5472 5472 5472 5471 5470 5469 5468 5468 5469 5471 5473 5474 5474 5475 5477 5479 5480 5481 5481 5482 5483 5485 5488 5490 5492 5495 5497 5497 5498 5500 5501 5501 5502 5502 5504 5505 5507 5511 5514 5516 5517 5520 5523 5526 5527 5528 5529 5530 5530 5531 5532 5531 5531 5531 5531 5532 5533 5535 5537 5538 5539 5540 5540 5541 5542 5543 5542 5543 5544 5544 5545 5545 5546 5547 5548 5549 5548 5547 5547 5547
5461 5459 5459 5458 5457 5457 5456 5455 5455 5454 5454 5452 5451 5451 5452 5453 5456 5457 5458 5460 5462 5464 5466 5467 5468 5469 5471 5473 5476 5479 5482 5482 5482 5484 5486 5486 5487 5488 5489 5491 5493 5495 5499 5502 5504 5506 5509 5512 5514 5515 5517 5517 5518 5520 5521 5521 5520 5520 5520 5521 5522 5523 5524 5526 5528 5529 5530 5530 5531 5532 5532 5532 5533 5534 5535 5536 5536 5536 5537 5538 5539 5539 5537 5538 5539
5445 5443 5442 5442 5441 5441 5439 5438 5438 5437 5437 5436 5436 5436 5435 5435 5436 5438 5440 5443 5445 5447 5450 5452 5454 5455 5457 5459 5461 5465 5469 5469 5468 5470 5471 5472 5473 5473 5474 5477 5479 5483 5486 5489 5492 5494 5497 5500 5502 5503 5505 5506 5507 5508 5509 5510 5510 5509 5509 5510 5512 5513 5514 5515 5517 5518 5519 5519 5519 5520 5521 5522 5523 5524 5525 5526 5527 5527 5527 5528 5530 5530 5528 5529 5529
5429 5426 5426 5426 5425 5424 5423 5422 5421 5420 5419 5419 5419 5419 5419 5420 5420 5419 5420 5423 5426 5428 5431 5435 5438 5440 5442 5444 5446 5451 5455 5455 5455 5456 5458 5458 5459 5460 5462 5464 5467 5470 5473 5476 5479 5482 5484 5488 5490 5491 5493 5495 5496 5496 5497 5498 5497 5496 5498 5500 5501 5502 5504 5506 5507 5507 5507 5508 5508 5510 5511 5511 5513 5515 5516 5516 5517 5517 5518 5519 5520 5520 5519 5519 5519
5413 5411 5410 5409 5408 5407 5405 5404 5404 5403 5402 5401 5401 5401 5401 5402 5404 5403 5403 5405 5407 5410 5412 5415 5420 5423 5427 5429 5431 5436 5441 5442 5441 5442 5444 5444 5445 5447 5449 5452 5454 5458 5461 5463 5465 5469 5473 5475 5477 5478 5481 5483 5484 5484 5484 5485 5485 5484 5487 5489 5489 5492 5495 5496 5497 5497 5497 5498 5499 5499 5500 5501 5503 5504 5505 5506 5506 5507 5508 5508 5509 5509 5509 5509 5509
5399 5398 5397 5394 5392 5390 5388 5386 5386 5385 5384 5383 5382 5381 5382 5383 5385 5385 5385 5387 5390 5392 5393 5396 5401 5405 5409 5413 5415 5419 5425 5428 5428 5428 5430 5430 5430 5433 5435 5438 5441 5446 5448 5450 5452 5456 5460 5462 5463 5467 5470 5472 5472 5471 5472 5473 5472 5472 5476 5478 5479 5482 5486 5486 5486 5486 5487 5488 5489 5489 5490 5492 5493 5494 5495 5495 5496 5497 5497 5497 5497 5498 5499 5499 5499
5385 5384 5383 5380 5377 5375 5372 5370 5368 5367 5366 5366 5364 5363 5363 5364 5365 5367 5367 5369 5372 5374 5376 5378 5382 5386 5390 5394 5398 5402 5408 5413 5414 5414 5415 5416 5416 5418 5421 5424 5429 5433 5435 5437 5439 5443 5447 5450 5451 5455 5458 5459 5459 5459 5460 5461 5462 5462 5465 5467 5469 5473 5476 5475 5475 5477 5477 5477 5477 5478 5480 5482 5483 5483 5484 5485 5486 5487 5487 5485 5486 5488 5488 5489 5489
5371 5369 5368 5365 5363 5360 5357 5354 5353 5351 5349 5348 5348 5347 5346 5346 5347 5348 5349 5351 5353 5356 5359 5361 5364 5369 5372 5374 5378 5382 5389 5396 5399 5399 5400 5402 5402 5404 5406 5411 5417 5420 5421 5423 5426 5429 5434 5438 5440 5443 5445 5446 5447 5448 5449 5450 5451 5452 5453 5457 5461 5464 5465 5463 5464 5466 5466 5465 5466 5468 5470 5472 5473 5473 5473 5474 5475 5477 5476 5475 5477 5478 5478 5479 5479
5356 5353 5352 5350 5348 5345 5342 5339 5337 5336 5334 5332 5331 5331 5331 5330 5330 5330 5331 5332 5335 5338 5341 5344 5347 5352 5356 5358 5360 5363 5368 5375 5381 5384 5385 5387 5389 5390 5392 5398 5403 5405 5406 5410 5414 5417 5422 5425 5428 5431 5432 5433 5435 5436 5437 5439 5440 5441 5444 5448 5453 5453 5452 5452 5454 5454 5454 5454 5456 5458 5461 5462 5463 5463 5463 5463 5464 5465 5465 5466 5467 5468 5468 5469 5469
5340 5338 5336 5334 5331 5329 5326 5323 5321 5320 5318 5316 5313 5314 5316 5315 5314 5314 5313 5314 5316 5319 5324 5327 5329 5334 5339 5342 5344 5347 5350 5354 5360 5365 5369 5372 5374 5376 5379 5385 5388 5389 5393 5398 5402 5406 5410 5412 5415 5418 5419 5420 5423 5424 5425 5427 5429 5431 5435 5438 5440 5440 5441 5442 5442 5442 5443 5445 5447 5449 5451 5452 5452 5452 5453 5453 5454 5454 5455 5456 5457 5458 5458 5458 5458
5324 5321 5319 5316 5314 5311 5308 5306 5304 5302 5301 5298 5295 5295 5298 5298 5296 5296 5296 5296 5297 5300 5305 5310 5312 5315 5321 5325 5329 5333 5335 5337 5341 5346 5351 5356 5359 5362 5366 5371 5373 5375 5380 5386 5390 5394 5398 5400 5402 5405 5405 5407 5410 5412 5413 5415 5417 5422 5424 5425 5427 5429 5430 5430 5431 5432 5434 5436 5438 5440 5441 5441 5441 5441 5442 5443 5444 5445 5446 5447 5447 5448 5448 5448 5448
5308 5305 5302 5299 5296 5293 5289 5287 5286 5284 5283 5281 5277 5277 5279 5279 5278 5278 5279 5279 5279 5281 5286 5291 5294 5297 5302 5308 5313 5318 5321 5322 5325 5329 5333 5339 5344 5347 5352 5356 5359 5362 5367 5373 5377 5382 5386 5388 5390 5391 5392 5394 5397 5399 5400 5403 5407 5411 5414 5414 5415 5418 5419 5420 5421 5423 5425 5426 5428 5430 5431 5431 5430 5430 5431 5432 5434 5435 5436 5437 5438 5438 5438 5438 5438
5292 5289 5286 5281 5278 5275 5272 5270 5268 5266 5265 5263 5261 5260 5261 5261 5260 5261 5262 5262 5263 5264 5268 5272 5275 5279 5284 5290 5297 5303 5306 5307 5310 5313 5318 5323 5329 5333 5337 5341 5344 5348 5352 5358 5363 5369 5374 5376 5376 5378 5380 5382 5384 5386 5388 5392 5395 5399 5402 5403 5403 5406 5409 5410 5411 5413 5415 5417 5419 5419 5420 5420 5419 5419 5421 5422 5423 5424 5425 5427 5427 5427 5427 5427 5428
5276 5273 5270 5266 5262 5259 5255 5254 5252 5249 5248 5246 5243 5243 5243 5242 5242 5243 5244 5245 5246 5248 5249 5253 5256 5260 5266 5273 5280 5286 5290 5292 5295 5300 5304 5309 5314 5319 5322 5325 5329 5333 5338 5344 5350 5355 5360 5362 5364 5366 5368 5370 5372 5375 5378 5381 5382 5385 5390 5392 5392 5396 5400 5400 5401 5403 5405 5406 5407 5408 5409 5409 5408 5408 5410 5412 5413 5414 5415 5416 5417 5417 5418 5417 5418
5261 5259 5255 5251 5247 5243 5239 5237 5235 5233 5231 5229 5227 5227 5227 5225 5224 5225 5226 5227 5229 5230 5232 5234 5237 5241 5248 5256 5262 5267 5272 5276 5281 5287 5292 5296 5299 5302 5305 5309 5315 5320 5325 5331 5337 5341 5346 5348 5351 5353 5356 5359 5361 5364 5367 5369 5370 5373 5379 5382 5383 5386 5390 5389 5390 5393 5394 5395 5396 5397 5398 5398 5398 5398 5400 5402 5402 5403 5404 5405 5407 5407 5407 5407 5408
5247 5244 5241 5237 5233 5229 5225 5222 5220 5218 5216 5215 5213 5212 5212 5210 5209 5210 5210 5209 5210 5212 5214 5216 5220 5224 5229 5237 5244 5249 5254 5261 5268 5275 5279 5281 5283 5285 5290 5296 5303 5308 5312 5318 5324 5328 5331 5334 5337 5340 5344 5348 5351 5353 5356 5358 5360 5364 5369 5372 5374 5377 5378 5379 5380 5382 5383 5384 5385 5386 5387 5388 5388 5389 5391 5391 5392 5393 5394 5395 5396 5396 5397 5397 5397
5236 5232 5228 5224 5221 5216 5212 5209 5207 5204 5203 5202 5200 5199 5198 5196 5195 5196 5197 5195 5193 5195 5197 5200 5204 5208 5210 5216 5225 5232 5239 5248 5254 5258 5262 5265 5268 5272 5279 5284 5290 5294 5299 5305 5310 5314 5317 5321 5325 5329 5333 5337 5340 5343 5346 5348 5349 5353 5358 5361 5363 5366 5368 5369 5370 5371 5372 5373 5374 5374 5376 5376 5377 5379 5381 5381 5382 5383 5383 5384 5385 5386 5386 5386 5387
5227 5222 5216 5212 5209 5206 5202 5199 5196 5193 5191 5189 5188 5187 5186 5184 5183 5183 5184 5183 5181 5180 5182 5185 5189 5191 5192 5198 5207 5215 5224 5233 5237 5240 5245 5250 5255 5260 5267 5271 5275 5280 5285 5291 5297 5302 5305 5309 5313 5318 5322 5325 5329 5332 5334 5336 5338 5342 5347 5350 5353 5355 5357 5359 5359 5360 5362 5363 5363 5363 5364 5366 5367 5370 5371 5371 5372 5373 5373 5374 5374 5375 5376 5376 5376
5217 5212 5207 5201 5198 5195 5191 5188 5185 5183 5181 5178 5177 5176 5176 5175 5173 5172 5172 5172 5170 5169 5168 5170 5173 5175 5176 5182 5190 5198 5207 5216 5221 5224 5230 5236 5241 5247 5254 5258 5262 5266 5270 5277 5284 5291 5294 5298 5302 5306 5310 5313 5317 5320 5323 5324 5327 5332 5337 5340 5343 5345 5347 5348 5349 5349 5350 5351 5352 5353 5355 5356 5358 5360 5361 5362 5362 5362 5363 5363 5364 5364 5365 5365 5365
5206 5203 5197 5192 5188 5184 5181 5178 5175 5172 5171 5169 5167 5166 5165 5165 5164 5163 5161 5160 5159 5158 5157 5157 5159 5161 5163 5167 5173 5181 5190 5199 5204 5209 5215 5221 5227 5233 5239 5244 5249 5252 5256 5263 5272 5279 5284 5288 5291 5295 5299 5302 5305 5309 5311 5314 5318 5323 5326 5329 5332 5335 5337 5338 5338 5337 5337 5339 5341 5343 5345 5347 5348 5350 5351 5351 5351 5352 5352 5353 5353 5353 5353 5354 5354
5197 5194 5189 5184 5180 5176 5172 5169 5166 5163 5161 5159 5158 5156 5155 5154 5154 5153 5151 5149 5148 5147 5147 5146 5147 5149 5150 5153 5158 5166 5174 5182 5188 5193 5200 5206 5213 5219 5224 5230 5236 5238 5242 5251 5262 5269 5274 5278 5281 5284 5287 5291 5294 5297 5300 5304 5309 5312 5314 5317 5321 5323 5325 5326 5324 5323 5325 5328 5331 5333 5335 5337 5338 5339 5340 5340 5340 5341 5341 5341 5342 5342 5342 5342 5341
5189 5186 5181 5177 5172 5169 5165 5161 5158 5155 5152 5150 5148 5146 5145 5144 5143 5142 5141 5140 5138 5137 5137 5136 5136 5137 5139 5142 5146 5152 5159 5166 5171 5178 5184 5191 5198 5204 5209 5215 5220 5224 5229 5240 5252 5259 5264 5268 5271 5274 5277 5281 5284 5287 5290 5294 5298 5300 5302 5305 5307 5310 5312 5312 5310 5311 5315 5318 5321 5323 5325 5326 5328 5329 5329 5329 5330 5330 5330 5331 5332 5331 5331 5330 5330
5183 5179 5175 5170 5166 5161 5157 5153 5150 5147 5144 5141 5139 5137 5136 5134 5133 5132 5131 5130 5129 5129 5128 5127 5126 5127 5129 5132 5135 5139 5144 5150 5156 5162 5169 5176 5183 5189 5193 5199 5206 5212 5219 5231 5243 5249 5253 5258 5261 5264 5268 5271 5275 5278 5281 5284 5287 5289 5290 5292 5295 5297 5299 5299 5298 5301 5305 5308 5310 5312 5314 5315 5317 5318 5319 5319 5320 5320 5321 5322 5322 5321 5321 5320 5319
5176 5173 5169 5164 5159 5155 5150 5146 5143 5140 5137 5135 5132 5130 5128 5126 5124 5123 5122 5121 5121 5120 5120 5119 5118 5118 5120 5122 5125 5128 5132 5137 5143 5149 5155 5162 5168 5173 5178 5187 5196 5203 5209 5219 5230 5238 5242 5247 5250 5254 5258 5262 5265 5269 5271 5273 5276 5277 5278 5280 5284 5286 5287 5287 5288 5291 5295 5297 5299 5301 5303 5305 5306 5308 5308 5309 5309 5310 5311 5312 5312 5311 5311 5310 5309
5171 5167 5163 5159 5154 5150 5146 5142 5138 5134 5131 5128 5125 5122 5120 5118 5116 5115 5114 5113 5112 5112 5112 5112 5112 5111 5112 5113 5116 5119 5122 5126 5131 5137 5143 5150 5154 5159 5166 5177 5186 5191 5197 5206 5216 5225 5232 5236 5240 5244 5249 5252 5255 5258 5260 5262 5264 5265 5267 5270 5273 5274 5275 5277 5279 5282 5284 5286 5289 5291 5293 5295 5296 5297 5298 5298 5299 5300 5301 5302 5302 5302 5301 5300 5299
5166 5162 5158 5154 5150 5146 5142 5138 5133 5129 5125 5121 5118 5115 5113 5111 5109 5108 5107 5106 5105 5105 5105 5104 5105 5105 5105 5106 5107 5110 5113 5116 5121 5127 5133 5138 5143 5149 5158 5167 5173 5179 5186 5193 5202 5212 5221 5226 5230 5235 5240 5243 5244 5246 5247 5250 5252 5254 5257 5260 5262 5263 5265 5268 5271 5273 5275 5277 5279 5281 5283 5285 5286 5287 5288 5288 5289 5291 5291 5292 5292 5292 5292 5291 5290
5162 5158 5154 5151 5147 5142 5137 5133 5128 5124 5119 5115 5112 5109 5107 5105 5104 5102 5101 5100 5099 5099 5099 5098 5098 5099 5099 5099 5100 5102 5105 5108 5113 5118 5123 5127 5133 5141 5149 5155 5160 5167 5174 5180 5189 5199 5209 5215 5220 5225 5229 5231 5232 5234 5236 5238 5240 5243 5247 5250 5251 5253 5256 5260 5262 5264 5266 5267 5269 5271 5273 5275 5277 5277 5278 5279 5280 5281 5282 5282 5282 5282 5283 5282 5281
5159 5155 5151 5148 5143 5138 5133 5128 5124 5120 5116 5111 5108 5105 5102 5100 5099 5097 5096 5095 5095 5094 5093 5093 5093 5093 5093 5094 5095 5096 5099 5102 5106 5111 5115 5119 5126 5133 5140 5144 5149 5156 5163 5170 5178 5187 5196 5204 5210 5215 5218 5219 5220 5222 5224 5226 5228 5232 5236 5240 5242 5245 5248 5251 5253 5255 5256 5258 5260 5262 5264 5266 5267 5268 5268 5269 5270 5271 5272 5272 5272 5273 5273 5272 5271
5157 5153 5149 5145 5141 5136 5131 5126 5122 5118 5114 5110 5105 5102 5099 5096 5094 5093 5092 5091 5090 5089 5089 5088 5088 5088 5089 5090 5091 5092 5094 5097 5101 5105 5109 5113 5119 5126 5131 5135 5140 5146 5153 5161 5169 5176 5184 5193 5200 5203 5206 5208 5208 5209 5211 5214 5218 5222 5227 5231 5234 5237 5240 5242 5244 5246 5248 5250 5252 5254 5256 5257 5258 5258 5259 5260 5261 5261 5262 5262 5263 5263 5262 5262 5261
5155 5151 5147 5143 5139 5135 5131 5126 5121 5117 5113 5109 5105 5101 5097 5094 5092 5090 5088 5087 5086 5085 5085 5084 5084 5084 5085 5086 5087 5089 5091 5094 5097 5100 5104 5109 5114 5119 5123 5127 5132 5138 5145 5152 5159 5166 5174 5183 5188 5192 5194 5194 5194 5196 5199 5203 5208 5213 5218 5223 5227 5229 5231 5233 5235 5238 5240 5242 5244 5246 5247 5248 5249 5249 5250 5251 5251 5251 5251 5252 5252 5252 5252 5251 5251
5153 5149 5146 5142 5139 5135 5130 5126 5121 5117 5113 5110 5106 5102 5098 5095 5092 5089 5087 5085 5083 5082 5082 5081 5081 5081 5082 5083 5085 5087 5089 5092 5094 5097 5101 5105 5109 5113 5117 5121 5126 5132 5137 5143 5150 5157 5165 5171 5176 5179 5180 5180 5181 5185 5190 5195 5200 5205 5210 5215 5218 5220 5222 5224 5227 5229 5231 5234 5235 5237 5238 5239 5239 5240 5240 5241 5241 5241 5241 5241 5241 5241 5241 5241 5240
5151 5148 5144 5141 5138 5134 5130 5126 5121 5117 5114 5111 5107 5103 5100 5097 5094 5091 5088 5085 5083 5082 5081 5080 5080 5080 5081 5082 5083 5085 5087 5090 5092 5094 5097 5101 5104 5108 5112 5116 5121 5125 5130 5136 5142 5148 5154 5159 5163 5166 5168 5170 5173 5178 5184 5188 5193 5198 5202 5206 5209 5211 5214 5216 5218 5220 5222 5224 5226 5227 5228 5229 5230 5230 5231 5231 5231 5230 5230 5231 5231 5231 5231 5230 5230
5150 5147 5143 5140 5137 5133 5129 5125 5122 5118 5114 5111 5108 5105 5102 5099 5096 5094 5091 5088 5086 5084 5082 5081 5081 5080 5081 5082 5083 5084 5086 5088 5090 5092 5094 5097 5100 5104 5107 5111 5115 5120 5124 5129 5134 5139 5144 5148 5153 5156 5159 5163 5168 5173 5177 5182 5187 5191 5195 5198 5200 5202 5204 5207 5209 5211 5213 5215 5217 5218 5219 5220 5220 5221 5222 5222 5221 5221 5221 5221 5221 5221 5220 5220 5220
5151 5147 5143 5139 5136 5132 5129 5125 5122 5118 5115 5112 5108 5106 5103 5100 5098 5095 5093 5091 5089 5087 5086 5084 5083 5082 5082 5082 5083 5084 5085 5087 5088 5090 5092 5095 5097 5100 5104 5107 5111 5115 5119 5123 5127 5132 5136 5140 5144 5148 5152 5157 5162 5167 5172 5176 5180 5184 5186 5189 5191 5193 5196 5199 5201 5203 5204 5206 5208 5209 5210 5210 5211 5212 5212 5212 5212 5212 5212 5211 5211 5211 5211 5210 5210
5153 5148 5143 5139 5135 5132 5128 5125 5122 5119 5115 5112 5109 5106 5104 5101 5099 5097 5095 5093 5091 5090 5089 5088 5086 5085 5085 5085 5084 5085 5085 5086 5087 5089 5091 5093 5095 5098 5101 5104 5107 5110 5114 5118 5122 5126 5130 5134 5138 5143 5147 5152 5157 5162 5166 5170 5173 5176 5179 5182 5184 5186 5188 5190 5193 5194 5196 5197 5199 5199 5200 5201 5202 5202 5203 5203 5203 5203 5203 5202 5202 5202 5202 5201 5201
5154 5150 5145 5141 5137 5132 5129 5125 5122 5118 5116 5113 5110 5107 5104 5102 5100 5098 5096 5094 5093 5092 5090 5089 5088 5088 5087 5087 5087 5087 5087 5087 5088 5089 5090 5092 5094 5096 5099 5102 5105 5108 5111 5114 5118 5121 5125 5129 5133 5138 5142 5147 5152 5156 5160 5164 5166 5169 5172 5174 5176 5178 5180 5182 5184 5186 5187 5189 5190 5190 5191 5193 5193 5194 5194 5194 5194 5195 5194 5194 5194 5194 5193 5193 5192
5155 5151 5146 5142 5138 5134 5130 5126 5122 5119 5116 5113 5110 5107 5105 5102 5100 5098 5096 5095 5094 5093 5092 5091 5090 5090 5089 5089 5088 5088 5088 5089 5089 5090 5091 5092 5094 5096 5098 5100 5103 5106 5109 5112 5115 5118 5122 5125 5129 5134 5138 5143 5147 5150 5154 5157 5160 5162 5165 5166 5168 5171 5173 5175 5177 5178 5179 5181 5182 5183 5184 5185 5185 5186 5186 5187 5187 5187 5186 5186 5186 5186 5185 5184 5183
5155 5151 5147 5143 5139 5135 5131 5128 5124 5120 5117 5113 5110 5108 5105 5103 5101 5099 5097 5095 5094 5093 5092 5092 5091 5091 5090 5090 5090 5090 5090 5090 5090 5091 5092 5094 5095 5096 5098 5100 5102 5105 5107 5110 5113 5116 5119 5122 5126 5130 5134 5138 5141 5144 5147 5150 5153 5155 5158 5160 5162 5164 5166 5168 5169 5171 5172 5174 5175 5176 5176 5178 5178 5179 5179 5179 5179 5179 5179 5178 5178 5178 5177 5176 5175
5154 5150 5146 5143 5139 5135 5132 5129 5125 5122 5118 5115 5112 5109 5106 5104 5101 5099 5097 5095 5094 5093 5092 5091 5091 5091 5091 5091 5091 5091 5091 5091 5092 5092 5093 5095 5096 5097 5099 5100 5102 5105 5107 5109 5112 5114 5117 5120 5124 5127 5130 5133 5136 5139 5141 5144 5147 5150 5152 5154 5156 5158 5160 5161 5163 5165 5166 5167 5168 5169 5169 5170 5171 5171 5171 5171 5171 5171 5171 5170 5170 5170 5169 5168 5167